Regional Weather Roundup
Issued by NWS

Home | Current Version | Previous Version | Text Only | Print | Product List | Glossary Off
Versions: 1 2 3 4 5 6 7 8 9 10 11 12 13 14 15 16 17 18 19 20 21 22 23 24 25 26 27 28 29 30 31 32 33 34 35 36 37 38 39 40 41 42 43 44 45 46 47 48 49 50

626
ASUS43 KDMX 191001
RWRIA

WEATHER ROUNDUP FOR IOWA
NATIONAL WEATHER SERVICE DES MOINES IA
400 AM CST SUN FEB 19 2017

NOTE: "FAIR" INDICATES FEW OR NO CLOUDS BELOW 12,000 FEET WITH NO
SIGNIFICANT WEATHER AND/OR OBSTRUCTIONS TO VISIBILITY.

* - THESE STATIONS ARE NOT NWS STATIONS...THUS NOT UNDER NWS
QUALITY CONTROL.  THEY ALSO DO NOT REPORT WEATHER SUCH
AS PRECIPITATION OR FOG.

IAZ001>003-012>014-020>022-031>034-043>046-191100-
   NORTHWEST IOWA

CITY           SKY/WX    TMP DP  RH WIND       PRES   REMARKS
CARROLL *      MOCLDY    37  37 100 SE7       29.87S WCI  32
CHEROKEE *     CLEAR     32  32 100 CALM      29.85F
DENISON *      MOCLDY    43  34  70 E6        29.83F
LE MARS *      CLOUDY    41  36  81 CALM      29.84S
SHELDON *      PTCLDY    37  37 100 SE6       29.82S WCI  33
SIOUX CITY     PTCLDY    37  32  82 SE8       29.82S WCI  31
SPENCER        FOG       33  32  96 SE6       29.86S VSB 1/2 WCI  28
STORM LAKE *   CLEAR     39  37  93 SE13      29.86S WCI  32
$$

IAZ055>058-069>071-079>083-090>094-191100-
   SOUTHWEST IOWA

CITY           SKY/WX    TMP DP  RH WIND       PRES   REMARKS
ATLANTIC *     CLEAR     34  32  93 CALM      29.87S
CLARINDA *       N/A     34  32  93 CALM      29.90R
COUNCIL BLFS * CLOUDY    45  34  65 S10       29.85S
CRESTON *      CLEAR     39  32  75 SE8       29.90S WCI  34
HARLAN  *      MOCLDY    37  32  81 CALM      29.89S
LAMONI         CLEAR     46  33  60 SE8       29.90R
RED OAK *      CLOUDY    39  32  75 CALM      29.87S
SHENANDOAH *   CLEAR     43  39  87 CALM      29.89R
$$

IAZ047>049-059>061-072>074-084-191100-
   CENTRAL IOWA

CITY           SKY/WX    TMP DP  RH WIND       PRES   REMARKS
AMES           FOG       30  30 100 CALM      29.91R VSB 1/4
ANKENY *       PTCLDY    32  32 100 CALM      29.92S
BOONE *        CLOUDY    37  37 100 SE8       29.89S FOG     WCI  31
CHARITON *     PTCLDY    37  32  81 SE6       29.91S WCI  33
DES MOINES     CLEAR     41  35  79 SE7       29.92R
GRINNELL*      CLOUDY    38  37  94 E6        29.93R WCI  33
KNOXVILLE *    CLOUDY    39  32  75 SE7       29.91R WCI  34
MARSHALLTOWN   FOG       28  28 100 CALM      29.91R VSB 1/4
NEWTON *       CLOUDY    36  36 100 SE5       29.91S WCI  32
PELLA *        CLOUDY    37  34  87 SE3       29.93R
PERRY *          N/A     34  34  99 E5        29.89F FOG     WCI  30
$$

IAZ004>006-015-016-023>025-035-036-191100-
   NORTH CENTRAL IOWA

CITY           SKY/WX    TMP DP  RH WIND       PRES   REMARKS
ALGONA *       PTCLDY    39  39 100 SE7       29.89R WCI  34
CLARION *      PTCLDY    39  39 100 SE10      29.89S FOG     WCI  32
ESTHERVILLE    FOG       33  33 100 S8        29.87S VSB 1/4 WCI  26
FORT DODGE *   MOCLDY    37  34  87 SE3       29.89S
MASON CITY     FOG       31  30  96 CALM      29.91S VSB 1/4
FOREST CITY *  FOG       28  27  93 CALM      29.90S VSB 1/2
IOWA FALLS *   FOG       31  31  98 CALM      29.92R VSB 1/4
$$

IAZ007>011-017>019-026>030-037>042-050>054-066-191100-
   NORTHEAST IOWA

CITY           SKY/WX    TMP DP  RH WIND       PRES   REMARKS
CEDAR RAPIDS   CLOUDY    32  32 100 CALM      29.92R
CHARLES CITY * FOG       34  34 100 CALM      29.92R VSB 1/2
CLINTON *      CLOUDY    30  28  92 CALM      29.93S
DECORAH *      CLEAR     34  34 100 CALM      29.91S FOG
DUBUQUE        CLEAR     34  33  96 CALM      29.92R
MONTICELLO *   FOG       27  27 100 CALM      29.93R VSB 3/4
OELWEIN *      CLEAR     34  34 100 S3        29.93R
WATERLOO       FOG       27  26  96 CALM      29.92R VSB 1/4
$$

IAZ064-065-067-068-078-191100-
   EAST CENTRAL IOWA

CITY           SKY/WX    TMP DP  RH WIND       PRES   REMARKS
DAVENPORT      CLOUDY    32  30  92 CALM      29.93R
IOWA CITY      CLOUDY    31  28  89 CALM      29.95R
MUSCATINE *    CLOUDY    30  27  86 CALM      29.95R
QUAD CITIES    CLOUDY    31  26  82 CALM      29.93R
$$

IAZ062-063-075>077-085>089-095>099-191100-
   SOUTHEAST IOWA

CITY           SKY/WX    TMP DP  RH WIND       PRES   REMARKS
BURLINGTON     CLOUDY    39  32  76 CALM      29.94R
FAIRFIELD *    CLOUDY    36  30  80 E6        29.93R WCI  31
KEOKUK *       CLEAR     39  34  81 CALM      29.94R
OTTUMWA        CLOUDY    36  32  85 SE3       29.92R
WASHINGTON *   CLOUDY    36  36 100 CALM      29.94S FOG
$$

ABBREVIATIONS USED IN REMARKS
   TC - TEMPERATURES IN CELSIUS
  WCI - WIND CHILL INDEX
   HX - HEAT INDEX
  VSB - VISIBILITY
$$





USA.gov is the U.S. government's official web portal to all federal, state and local government web resources and services.